UNISAT-6

Last updated on Fri Dec 19 2025 00:03:11 GMT+0000 (Coordinated Universal Time)

1 40012U 14033C 25352.39947485 .00002625 00000+0 29506-3 0 9993 2 40012 97.7616 143.7274 0045255 305.1305 54.5674 14.86838772619282
UTC large
Height (km)
Speed (km/s)
/
Latitude / Longitude
Inclination (degrees)
Orbital Period (minutes)
Azimuth
Elevation
Range (km)
Doppler Factor

Next 0 passes for location: London (51.5072 / 0.1276)

Sorry there are no passes over London.